Location: Meanaryar
(48.4161°N, 4.7315°W)
Time: 08:40:52
(UTC+00:00)

Cosmos 1092 Rocket - Pass Details

Date: 25 January 2021
Orbit: 954 x 995 km, 83.0° (Epoch: 02 March)

Event Time Altitude Azimuth Distance (km) Brightness Sun altitude
Rises 03:39:00 0° 3° (N) 3,645 7.2 -42.2°
Reaches altitude 10° 03:43:33 10° 34° (NE) 2,696 6.8 -41.5°
Maximum altitude 03:45:45 12° 55° (NE) 2,557 6.8 -41.1°
Drops below altitude 10° 03:47:57 10° 77° (ENE) 2,696 7.0 -40.8°
Sets 03:52:28 0° 107° (ESE) 3,644 7.6 -40.1°
